sat.trackr.live / text

‹ back to catalog

STARLINK-30434

NORAD 57875 · 2023-144M

PAYLOAD ACTIVE UNKNOWN

§ Identity

Operator
Country
US
Launch date
2023-09-16
Launch site
AFETR
Launch vehicle
Mass (kg)
RCS (m²)

Purposes: comms

External: N2YO · Heavens-Above · Gunter

§ Orbital elements

Epoch: 2026-05-25T04:26:39.189120Z

Period
94.27 min
Inclination
43.0027°
Eccentricity
0.0002052
Mean motion
15.27576211 rev/d
Perigee alt
481.7 km
Apogee alt
484.5 km
Semi-major
6,861.2 km
B*
1.0435e-4
RAAN
213.4369°
Arg perigee
280.9023°
Mean anomaly
79.1597°
Rev number
14,934

§ Raw data

STARLINK-304341 57875U 23144M   26145.18517580  .00002610  00000+0  10435-3 0  99932 57875  43.0027 213.4369 0002052 280.9023  79.1597 15.27576211149347

JSON: /api/v1/satellites/57875 · /tle

For live sub-satellite position, see the globe view (requires WebGL).

§ Visibility from observer

Set your observer location to see the next 7 days of passes ≥ 10°. The values pass through the URL so the page stays shareable.

No JS? Fill the form by hand. The geolocation button needs JavaScript.